Regional Weather Roundup
Issued by NWS

Home | Current Version | Previous Version | Text Only | Print | Product List | Glossary Off
Versions: 1 2 3 4 5 6 7 8 9 10 11 12 13 14 15 16 17 18 19 20 21 22 23 24 25 26 27 28 29 30 31 32 33 34 35 36 37 38 39 40 41 42 43 44 45 46 47 48 49 50

000
ASUS43 KBIS 211420
RWRND

NORTH DAKOTA REGIONAL WEATHER ROUNDUP
NATIONAL WEATHER SERVICE BISMARCK ND
900 AM CDT THU AUG 21 2014

NOTE: "FAIR" INDICATES FEW OR NO CLOUDS BELOW 12,000 FEET WITH NO
SIGNIFICANT WEATHER AND/OR OBSTRUCTIONS TO VISIBILITY.


NDZ001>003-009>011-017-211500-
NORTHWEST NORTH DAKOTA

CITY           SKY/WX    TMP DP  RH WIND       PRES   REMARKS
WILLISTON      SUNNY     61  59  93 CALM      29.90R
MINOT          CLOUDY    64  62  93 NW8       29.83R FOG
MINOT AFB      CLOUDY    64  64 100 NW7       29.83R FOG
$$

NDZ018>021-031>035-040>046-211500-
SOUTHWEST NORTH DAKOTA

CITY           SKY/WX    TMP DP  RH WIND       PRES   REMARKS
BISMARCK       CLOUDY    67  64  90 NW9       29.83R
DICKINSON      SUNNY     62  60  93 NW8       29.89R
GARRISON         N/A     67  65  93 NW7       29.83R
HETTINGER ARPT MOSUNNY   64  59  83 NW7       29.92R
$$

NDZ004>008-012>016-024-026-027-054-211500-
NORTHEAST NORTH DAKOTA

CITY           SKY/WX    TMP DP  RH WIND       PRES   REMARKS
GRAND FORKS    CLOUDY    70  64  83 E8        29.76F
GRND FRKS AFB  CLOUDY    69  69  98 E7        29.77F
DEVILS LAKE    CLOUDY    70  63  78 NE9       29.77R
$$

NDZ022-023-025-028>030-036>039-047>053-211500-
SOUTHEAST NORTH DAKOTA

CITY           SKY/WX    TMP DP  RH WIND       PRES   REMARKS
FARGO          CLOUDY    73  67  81 SE5       29.75R
JAMESTOWN      CLOUDY    70  67  90 S5        29.76R
$$



USA.gov is the U.S. government's official web portal to all federal, state and local government web resources and services.